Weather History for Nassau, Bahamas

Change the Weather History Date:

Wednesday, December 4, 2013

  Actual Average Record
Temperature  
Mean Temperature 74 °F -  
Max Temperature 83 °F 79 °F 84 °F (2006)
Min Temperature 64 °F 64 °F 59 °F (2005)
Cooling Degree Days 8    
Growing Degree Days 24 (Base 50)    
Moisture  
Dew Point 67 °F    
Average Humidity 79    
Maximum Humidity 100    
Minimum Humidity 58    
Precipitation  
Precipitation 0.00 in 0.07 in - ()
Sea Level Pressure  
Sea Level Pressure 30.07 in    
Wind  
Wind Speed 2 mph ()    
Max Wind Speed 12 mph    
Max Gust Speed -    
Visibility 7.2 miles    
Events      
Averages and records for this station are not official NWS values.
T = Trace of Precipitation, MM = Missing Value Source: Averaged Metar Reports

Daily Weather History Graph

Daily Weather History Graph

Search for Another Location

Airport:

Trip Planner

Search our weather history database for the weather conditions in past years. The results will help you decide how hot, cold, wet, or windy it might be!

Date:

Astronomy

Dec. 04, 2013 Rise Set
Actual Time 6:40 AM EST 5:20 PM EST
Civil Twilight 6:15 AM EST 5:44 PM EST
Nautical Twilight 5:47 AM EST 6:13 PM EST
Astronomical Twilight 5:19 AM EST 6:41 PM EST
Moon 8:10 AM EST (12/4) 7:23 PM EST (12/4)
Length of Visible Light 11h 29m
Length of Day
10h 39m
Waxing Crescent, 4% of the Moon is Illuminated
Dec 4
Waxing Crescent
Dec 9
First Quarter
Dec 17
Full
Dec 25
Last Quarter
Jan 1
New

Hourly Weather History & Observations

Time (EST) Temp. Heat Index Dew Point Humidity Pressure Visibility Wind Dir Wind Speed Gust Speed Precip Events Conditions
12:00 AM 68.0 °F - 62.6 °F 83% 30.06 in - Calm Calm - N/A   Clear
1:00 AM 67 °F - 65 °F 93% 30.05 in 9 mi Calm Calm - -  
1:00 AM 66.2 °F - 66.2 °F 100% 30.05 in - Calm Calm - N/A   Clear
3:00 AM 68.0 °F - 62.6 °F 83% 30.03 in 6.2 mi Calm Calm - N/A   Partly Cloudy
4:00 AM 67 °F - 65 °F 93% 30.02 in 9 mi Calm Calm - -   Scattered Clouds
4:00 AM 66.2 °F - 66.2 °F 100% 30.03 in 6.2 mi Calm Calm - N/A   Partly Cloudy
5:00 AM 68.0 °F - 62.6 °F 83% 30.02 in - Calm Calm - N/A   Clear
6:00 AM 68.0 °F - 62.6 °F 83% 30.04 in 6.2 mi Calm Calm - N/A   Partly Cloudy
7:00 AM 67 °F - 66 °F 95% 30.06 in 9 mi Calm Calm - -   Partly Cloudy
7:00 AM 66.2 °F - 66.2 °F 100% 30.06 in 6.2 mi Calm Calm - N/A   Partly Cloudy
8:00 AM 75.2 °F - 66.2 °F 73% 30.09 in 6.2 mi Variable 2.3 mph - N/A   Partly Cloudy
9:00 AM 77.0 °F - 66.2 °F 69% 30.12 in 6.2 mi Variable 2.3 mph - N/A   Partly Cloudy
10:00 AM 80 °F - 69 °F 61% 30.14 in 9 mi East 3.5 mph - -   Scattered Clouds
10:00 AM 80.6 °F 83.2 °F 68.0 °F 65% 30.13 in 6.2 mi East 3.5 mph - N/A   Partly Cloudy
12:00 PM 80.6 °F 82.3 °F 64.4 °F 58% 30.00 in 6.2 mi SE 8.1 mph - N/A   Scattered Clouds
1:00 PM 82 °F - 69 °F 58% 30.07 in 9 mi East 3.5 mph - -  
1:00 PM 82.4 °F 86.3 °F 69.8 °F 66% 30.06 in 6.2 mi East 3.5 mph - N/A   Scattered Clouds
2:00 PM 80.6 °F 83.2 °F 68.0 °F 65% 30.05 in 6.2 mi East 11.5 mph - N/A   Scattered Clouds
3:00 PM 78.8 °F - 68.0 °F 69% 30.03 in 6.2 mi East 6.9 mph - N/A   Mostly Cloudy
4:00 PM 81 °F - 71 °F 63% 30.04 in 9 mi ESE 6.9 mph - -   Partly Cloudy
4:00 PM 80.6 °F 83.9 °F 69.8 °F 70% 30.03 in - North - - N/A   Scattered Clouds
5:00 PM 77.0 °F - 68.0 °F 74% 30.04 in 6.2 mi East 5.8 mph - N/A   Partly Cloudy
6:00 PM 75.2 °F - 68.0 °F 78% 30.06 in 6.2 mi East 4.6 mph - N/A   Partly Cloudy
7:00 PM 76 °F - 70 °F 76% 30.08 in 9 mi East 3.5 mph - -   Scattered Clouds
7:00 PM 75.2 °F - 69.8 °F 83% 30.08 in 6.2 mi East 3.5 mph - N/A   Partly Cloudy
8:00 PM 73.4 °F - 68.0 °F 83% 30.09 in 6.2 mi East 3.5 mph - N/A   Partly Cloudy
10:00 PM 73 °F - 70 °F 89% 30.11 in 9 mi Calm Calm - -   Clear
10:00 PM 73.4 °F - 69.8 °F 88% 30.11 in - Calm Calm - N/A   Clear
11:00 PM 73.4 °F - 69.8 °F 88% 30.14 in - Variable 2.3 mph - N/A   Clear